Hourly Weather Roundup
Issued by NWS Central Illinois

Home | Current Version | Previous Version | Text Only | Print | Product List | Glossary On
Versions: 1 2 3 4 5 6 7 8 9 10 11 12 13 14 15 16 17 18 19 20 21 22 23 24 25 26 27 28 29 30 31 32 33 34 35 36 37 38 39 40 41 42 43 44 45 46 47 48 49 50
738
NZUS43 KILX 170810
HWRILX

Area Weather Roundup
National Weather Service Lincoln IL
300 AM CDT TUE OCT 17 2017

NOTE:  "FAIR" indicates few or no clouds below 12,000 feet, with
       no sigificant weather and/or obstructions to visibility.


CITY           SKY/WX    TMP DP  RH WIND       PRES   REMARKS
Bloomington    CLEAR     48  39  71 SW9       30.26S
Champaign      CLEAR     43  37  79 S8        30.27S
Danville       CLEAR     43  37  80 S5        30.25S
Decatur        CLEAR     46  38  73 SW9       30.27S
Effingham      CLEAR     45  38  78 S3        30.31S
Flora          CLEAR     41  39  92 CALM      30.32S
Galesburg      PTCLDY    45  38  78 S7        30.22F
Jacksonville   CLOUDY    47  39  74 S6        30.26S
Lacon          CLOUDY    47  40  77 S3        30.22S
Lawrenceville  CLEAR    N/A N/A N/A S3        30.32S
Litchfield     CLEAR     42  38  84 S5        30.28S
$$


CITY           SKY/WX    TMP DP  RH WIND       PRES   REMARKS
Lincoln        CLOUDY    46  41  81 S3        30.26S
Macomb         PTCLDY    47  39  74 SW6       30.25S
Mattoon        CLEAR     49  39  68 S7        30.28S
Mt Carmel AP   CLEAR     41  39  93 CALM      30.32S
Olney-Noble AP CLEAR     41  39  93 CALM      30.32S
Paris AP       CLEAR     46  39  75 SW8       30.30S
Peoria         CLOUDY    46  39  76 SW3       30.24S
Pontiac        CLEAR     49  41  73 SW8       30.25S
Rantoul        CLEAR     47  41  80 SW3       30.26S
Robinson       CLEAR     40  37  89 CALM      30.32S
Springfield    CLEAR     50  40  68 SW5       30.27R
Taylorville    CLEAR     44  37  78 S7        30.28S
$$

...REGIONAL REPORTS...


CITY           SKY/WX    TMP DP  RH WIND       PRES   REMARKS
Chicago O`Hare PTCLDY    50  37  61 SW10      30.19S
Kankakee       CLOUDY    46  37  72 SW6       30.25S
Moline         CLEAR     52  37  56 SW7       30.18R
Mount Sterling CLOUDY    46  39  78 SW6       30.25R
Mount Vernon   CLEAR     36  36 100 CALM      30.32S FOG
Pittsfield     CLOUDY    47  40  77 S5        30.28R
Quincy         CLOUDY    47  40  76 S7        30.24S
Rockford       CLEAR     46  38  73 S7        30.19S
$$


CITY           SKY/WX    TMP DP  RH WIND       PRES   REMARKS
Burlington     PTCLDY    49  41  74 SW7       30.21S
Cedar Rapids   PTCLDY    48  40  73 S9        30.13S
Des Moines     CLEAR     54  40  59 S13       30.13R
Kirksville     PTCLDY    49  43  80 SW7       30.23S
Ottumwa        CLEAR     50  40  68 S10       30.16F
St Louis       PTCLDY    52  38  58 SW8       30.28F
$$


CITY           SKY/WX    TMP DP  RH WIND       PRES   REMARKS
Terre Haute    CLEAR     39  37  92 CALM      30.31S
Evansville     CLEAR     42  40  92 CALM      30.34R
Indianapolis   CLEAR     44  38  79 SW5       30.30S
Lafayette      CLEAR     43  39  86 CALM      30.28S
Madison        CLEAR     52  38  58 SW7       30.10F
Milwaukee      PTCLDY    49  38  65 SW10      30.14S
$$






USA.gov is the U.S. government's official web portal to all federal, state and local government web resources and services.